OpenBCM V1.13 (Linux)

Packet Radio Mailbox

DB0FHN

[JN59NK Nuernberg]

 Login: GUEST





  
UA9FBV > KEPS     24.10.04 07:36l 207 Lines 5448 Bytes #999 (0) @ AMSAT
BID : ORB04297.W
Read: GUEST
Subj: Orbital Elements  04297.WEATHER
Path: DB0FHN<DB0FOR<DB0MRW<OK0PKL<OK0PPL<RZ6HXA<ER3KAZ<UA9FBV
Sent: 041024/0531Z @:UA9FBV.PRM.RUS.AS #:6660 [Perm] GATEWAY $:ORB04297.W
From: UA9FBV@UA9FBV.PRM.RUS.AS
To  : KEPS@AMSAT


HR AMSAT ORBITAL ELEMENTS FOR WEATHER SATELLITES
FROM WA5QGD FORT WORTH,TX October 23, 2004
SEND SUBSCRIBE/UNSUBSCRIBE TO majordomo@amsat.org ONLY
BID: ORB04297.W
TO ALL RADIO AMATEURS BT

Satellite: NOAA-10
Catalog number: 16969
Epoch time:      04297.44322867
Element set:     439
Inclination:       98.7622 deg
RA of node:       296.6968 deg
Eccentricity:    0.0013395
Arg of perigee:   102.1800 deg
Mean anomaly:     258.0878 deg
Mean motion:   14.27218488 rev/day
Decay rate:       1.95e-06 rev/day^2
Epoch rev:           94132
Checksum:              346

Satellite: NOAA-11
Catalog number: 19531
Epoch time:      04297.44166353
Element set:     297
Inclination:       98.8601 deg
RA of node:        20.4559 deg
Eccentricity:    0.0010828
Arg of perigee:   260.0437 deg
Mean anomaly:      99.9533 deg
Mean motion:   14.14732867 rev/day
Decay rate:        8.3e-07 rev/day^2
Epoch rev:           82945
Checksum:              322

Satellite: NOAA-12
Catalog number: 21263
Epoch time:      04297.41737278
Element set:     784
Inclination:       98.6824 deg
RA of node:       283.8851 deg
Eccentricity:    0.0013269
Arg of perigee:    41.5422 deg
Mean anomaly:     318.6768 deg
Mean motion:   14.25420042 rev/day
Decay rate:       2.45e-06 rev/day^2
Epoch rev:           69851
Checksum:              321

Satellite: MET-3/5
Catalog number: 21655
Epoch time:      04296.54314801
Element set:     658
Inclination:       82.5542 deg
RA of node:       326.5513 deg
Eccentricity:    0.0014091
Arg of perigee:   104.5209 deg
Mean anomaly:     255.7476 deg
Mean motion:   13.16996662 rev/day
Decay rate:        5.1e-07 rev/day^2
Epoch rev:           63403
Checksum:              298

Satellite: MET-2/21
Catalog number: 22782
Epoch time:      04297.86647188
Element set:      37
Inclination:       82.5449 deg
RA of node:        88.4479 deg
Eccentricity:    0.0023616
Arg of perigee:    68.1696 deg
Mean anomaly:     292.2004 deg
Mean motion:   13.83571999 rev/day
Decay rate:       1.74e-06 rev/day^2
Epoch rev:           56289
Checksum:              358

Satellite: OKEAN-4
Catalog number: 23317
Epoch time:      04296.89983738
Element set:     457
Inclination:       82.5380 deg
RA of node:       118.6074 deg
Eccentricity:    0.0021673
Arg of perigee:   194.6554 deg
Mean anomaly:     165.4035 deg
Mean motion:   14.81910878 rev/day
Decay rate:       4.27e-06 rev/day^2
Epoch rev:           54076
Checksum:              334

Satellite: NOAA-14
Catalog number: 23455
Epoch time:      04297.44683771
Element set:     321
Inclination:       99.1264 deg
RA of node:       335.5086 deg
Eccentricity:    0.0008672
Arg of perigee:   309.5821 deg
Mean anomaly:      50.4591 deg
Mean motion:   14.13499833 rev/day
Decay rate:       3.71e-06 rev/day^2
Epoch rev:           50605
Checksum:              310

Satellite: SICH-1
Catalog number: 23657
Epoch time:      04296.89720753
Element set:     261
Inclination:       82.5263 deg
RA of node:       259.4019 deg
Eccentricity:    0.0023810
Arg of perigee:   178.3367 deg
Mean anomaly:     181.7932 deg
Mean motion:   14.80944723 rev/day
Decay rate:       4.82e-06 rev/day^2
Epoch rev:           49283
Checksum:              323

Satellite: NOAA-15
Catalog number: 25338
Epoch time:      04297.42956806
Element set:     771
Inclination:       98.5196 deg
RA of node:       306.9453 deg
Eccentricity:    0.0010276
Arg of perigee:   335.4959 deg
Mean anomaly:      24.5734 deg
Mean motion:   14.24458404 rev/day
Decay rate:        4.8e-07 rev/day^2
Epoch rev:           33504
Checksum:              325

Satellite: RESURS
Catalog number: 25394
Epoch time:      04297.56888028
Element set:     930
Inclination:       98.5697 deg
RA of node:         7.1634 deg
Eccentricity:    0.0002370
Arg of perigee:   109.4797 deg
Mean anomaly:     250.6640 deg
Mean motion:   14.24028615 rev/day
Decay rate:        5.2e-07 rev/day^2
Epoch rev:           32677
Checksum:              314

Satellite: FENGYUN1
Catalog number: 25730
Epoch time:      04297.06928544
Element set:     261
Inclination:       98.6070 deg
RA of node:       302.3907 deg
Eccentricity:    0.0015309
Arg of perigee:    59.2106 deg
Mean anomaly:     301.0560 deg
Mean motion:   14.11781906 rev/day
Decay rate:       1.99e-06 rev/day^2
Epoch rev:           28105
Checksum:              279

Satellite: OKEAN-0
Catalog number: 25860
Epoch time:      04297.19153585
Element set:     265
Inclination:       97.7850 deg
RA of node:       327.1965 deg
Eccentricity:    0.0000568
Arg of perigee:    96.7970 deg
Mean anomaly:     263.3302 deg
Mean motion:   14.73129848 rev/day
Decay rate:       1.66e-06 rev/day^2
Epoch rev:           28311
Checksum:              323

Satellite: NOAA-16
Catalog number: 26536
Epoch time:      04295.52393953
Element set:      69
Inclination:       98.9787 deg
RA of node:       247.0457 deg
Eccentricity:    0.0010961
Arg of perigee:    24.6886 deg
Mean anomaly:     335.4851 deg
Mean motion:   14.12162529 rev/day
Decay rate:       -4.4e-07 rev/day^2
Epoch rev:           21037
Checksum:              326

Satellite: NOAA-17
Catalog number: 27453
Epoch time:      04295.11693140
Element set:      91
Inclination:       98.6875 deg
RA of node:         5.9420 deg
Eccentricity:    0.0012142
Arg of perigee:    33.6521 deg
Mean anomaly:     326.5446 deg
Mean motion:   14.23580940 rev/day
Decay rate:       -4.9e-07 rev/day^2
Epoch rev:           12082
Checksum:              281



Read previous mail | Read next mail


 21.06.2026 03:07:36lGo back Go up